Lapse_Rate
5.9 6.1 6.3 6.4 6.5 6.5 6.6 6.7 6.7 6.8 6.9 6.9 6.8 6.7 6.6 6.6 6.4 6.2 6.2 6.3 6.1 5.8 5.7 5.4 5.4 5.3 5.6 5.9 6.4 6.4 6.7 6.7 6.7 6.7 6.8 6.9 6.8 6.8 6.6 6.9 6.7 6.6 6.7 7.1 7.0 6.5 6.8
6.1 6.0 6.1 6.3 6.4 6.6 6.7 6.8 6.9 6.9 7.0 6.9 6.9 6.8 6.8 6.9 6.7 6.4 6.2 6.2 6.0 5.9 5.8 5.6 5.5 5.4 5.5 6.1 6.4 6.4 6.5 6.6 6.7 6.7 6.9 6.9 6.8 6.7 6.8 6.9 7.0 6.7 6.9 7.1 7.3 6.8 6.8
6.3 6.1 6.2 6.3 6.5 6.6 6.7 6.8 7.0 7.1 7.0 7.0 7.1 7.1 7.0 6.9 6.8 6.5 6.2 6.2 6.1 6.1 5.9 5.9 5.7 5.6 5.8 6.0 6.3 6.4 6.4 6.4 6.6 6.7 6.7 6.8 6.7 6.5 6.6 6.8 6.9 6.9 7.1 7.2 7.3 7.1 6.8
6.2 6.3 6.2 6.4 6.6 6.7 6.7 6.8 6.9 7.1 7.2 7.2 7.4 7.4 7.2 7.1 6.8 6.6 6.4 6.3 6.3 6.2 6.1 6.0 5.9 5.8 5.8 5.9 6.0 6.2 6.3 6.3 6.4 6.6 6.7 6.8 6.7 6.7 6.7 6.8 7.0 7.0 7.2 7.2 7.2 7.2 7.0
6.5 6.3 6.5 6.5 6.8 6.9 6.8 6.8 7.0 7.1 7.2 7.4 7.5 7.5 7.4 7.3 7.0 6.8 6.6 6.4 6.4 6.3 6.2 6.2 6.2 6.1 5.6 5.7 6.2 6.4 6.6 6.4 6.4 6.5 6.6 6.8 6.8 6.8 6.8 6.9 7.0 7.0 7.5 7.1 7.1 7.3 7.0
6.6 6.4 6.6 6.6 6.7 7.0 7.0 6.8 7.0 7.1 7.2 7.4 7.5 7.5 7.5 7.4 7.3 7.1 7.0 6.8 6.5 6.5 6.3 6.3 6.0 6.0 6.0 6.1 6.1 6.2 6.5 6.6 6.5 6.5 6.6 6.8 6.9 6.7 6.8 7.1 7.3 7.0 7.1 6.9 7.0 7.0 6.9
6.6 6.6 6.6 6.7 6.8 7.0 7.0 7.2 7.1 7.1 7.2 7.3 7.4 7.5 7.5 7.5 7.5 7.4 7.2 7.1 6.9 6.9 6.4 6.3 6.2 6.1 6.2 6.1 6.2 6.2 6.5 6.7 6.8 6.8 6.8 6.7 6.7 6.8 6.8 6.8 6.9 6.9 6.9 7.0 6.8 6.8 6.8
6.7 6.6 6.7 6.7 6.8 7.0 7.2 7.3 7.3 7.2 7.3 7.3 7.4 7.5 7.5 7.6 7.5 7.6 7.4 7.4 7.2 7.2 6.8 6.5 6.4 6.4 6.3 6.3 6.3 6.2 6.3 6.6 6.8 6.8 6.8 6.7 6.6 6.7 6.8 6.8 6.8 6.9 6.8 6.8 6.7 6.7 6.7
6.8 6.7 6.7 6.8 6.8 7.0 7.1 7.3 7.4 7.4 7.3 7.4 7.4 7.5 7.6 7.6 7.6 7.7 7.6 7.5 7.4 7.3 7.1 6.9 6.8 6.7 6.6 6.5 6.4 6.3 6.4 6.6 6.8 6.8 6.9 6.7 6.6 6.6 6.7 6.8 6.8 6.8 6.8 6.8 6.7 6.6 6.6
6.8 6.9 6.7 6.9 6.9 7.0 7.1 7.2 7.4 7.4 7.4 7.5 7.5 7.6 7.7 7.7 7.7 7.6 7.6 7.6 7.6 7.4 7.2 7.2 6.9 6.9 6.8 6.8 6.6 6.5 6.4 6.4 6.3 6.7 6.7 6.8 6.9 6.8 6.7 6.7 6.8 6.9 6.7 6.7 6.7 6.7 7.1
6.7 6.8 6.9 6.8 7.2 7.0 7.1 7.2 7.3 7.5 7.5 7.6 7.6 7.6 7.7 7.6 7.6 7.6 7.6 7.6 7.6 7.4 7.0 7.2 7.2 7.0 6.9 6.8 6.8 6.9 6.8 6.8 6.6 6.5 6.6 6.7 6.9 7.0 6.8 6.7 6.7 6.7 6.8 6.8 6.8 6.7 6.6
6.6 6.6 6.8 7.0 7.0 7.0 7.1 7.2 7.2 7.3 7.4 7.5 7.7 7.7 7.8 7.8 7.8 7.8 7.6 7.6 7.6 7.6 7.5 7.6 7.4 7.3 7.3 7.2 7.1 7.0 7.0 7.0 7.0 6.8 6.5 6.7 6.8 6.8 6.9 6.9 6.8 6.7 6.7 6.8 7.0 7.0 7.0
6.4 6.7 6.6 6.9 7.1 6.9 6.9 7.1 7.2 7.4 7.4 7.5 7.7 7.7 7.7 7.8 7.8 7.9 7.8 7.7 7.7 7.6 7.5 7.5 7.5 7.5 7.4 7.3 7.2 7.1 7.1 7.1 6.9 7.0 6.9 6.7 6.8 6.8 6.9 6.9 6.9 6.8 6.8 7.3 7.3 7.3 7.6
6.9 6.8 6.6 6.6 6.9 7.0 6.9 7.2 7.2 7.3 7.4 7.5 7.6 7.7 7.6 7.8 7.8 7.8 7.8 7.8 7.7 7.8 7.6 7.5 7.5 7.6 7.5 7.5 7.4 7.3 7.0 6.9 6.9 6.9 6.7 6.6 6.7 6.9 6.8 6.9 7.0 7.0 6.8 7.2 7.2 7.6 8.0
6.7 7.3 6.8 6.4 6.9 7.0 6.8 6.7 7.1 7.3 7.2 7.4 7.5 7.6 7.6 7.6 7.7 7.8 7.9 7.7 7.8 7.8 7.6 7.5 7.5 7.6 7.6 7.5 7.4 7.3 7.2 7.0 6.9 6.9 6.8 6.8 7.1 7.1 6.9 6.7 6.8 6.9 6.8 6.9 6.8 7.0 6.9
5.9 6.5 7.0 6.7 7.0 7.2 6.8 6.9 7.2 7.2 7.2 7.3 7.5 7.6 7.6 7.6 7.7 7.8 7.8 7.7 7.7 7.7 7.7 7.6 7.5 7.4 7.4 7.5 7.3 7.3 7.3 7.3 7.0 6.9 6.8 6.8 7.0 7.3 7.0 6.7 6.8 6.8 6.7 6.8 6.9 7.2 7.2
6.0 6.1 6.6 6.3 6.3 6.9 6.9 6.8 7.1 7.1 6.8 7.1 7.3 7.4 7.6 7.6 7.9 7.8 7.7 7.7 7.7 7.7 7.7 7.5 7.5 7.3 7.4 7.4 7.3 7.3 7.3 7.3 7.1 7.0 6.9 6.8 6.7 7.5 7.4 7.0 6.6 6.6 6.6 6.5 6.6 6.9 7.6
5.4 6.0 5.9 6.1 6.0 6.6 6.8 6.9 6.6 6.9 6.8 7.0 7.3 7.2 7.4 7.5 7.6 7.8 7.7 7.6 7.6 7.6 7.6 7.5 7.5 7.4 7.4 7.1 7.4 7.2 7.3 7.1 7.1 6.9 7.0 6.8 6.7 6.8 7.3 7.3 7.2 7.0 6.9 6.7 6.5 7.0 6.4
5.0 5.6 5.8 5.7 5.6 6.2 6.2 6.8 6.5 6.6 6.9 6.9 7.1 7.2 7.4 7.5 7.6 7.9 7.8 7.8 7.6 7.6 7.6 7.4 7.3 7.3 7.3 7.2 7.0 7.3 7.3 7.2 7.1 6.9 6.8 6.7 6.4 6.6 7.4 7.0 6.8 7.0 6.9 6.5 6.4 6.0 6.2
4.5 5.0 5.2 5.5 5.6 5.7 5.7 6.2 7.0 6.5 6.9 6.9 6.8 6.8 7.4 7.5 7.7 7.7 7.7 7.8 7.7 7.5 7.5 7.4 7.2 7.1 7.2 7.2 7.2 7.2 7.3 7.0 7.1 7.0 7.0 6.8 6.8 6.8 7.3 7.8 6.8 6.5 6.9 6.3 5.9 5.7 5.9
5.0 4.8 5.1 5.3 5.4 5.3 5.4 5.8 6.4 6.8 6.8 6.8 6.8 6.9 7.2 7.2 7.4 7.5 7.6 7.5 7.7 7.2 7.2 7.2 7.1 7.1 6.9 6.8 7.0 7.2 7.1 7.1 7.2 7.1 7.0 6.6 6.5 6.9 6.8 7.2 6.8 6.8 7.5 7.5 6.2 7.0 5.4
4.4 4.5 5.0 5.1 5.1 5.1 5.4 5.8 5.8 6.4 6.7 6.6 6.6 6.8 7.2 7.0 7.3 7.7 7.8 7.8 7.6 7.4 7.1 7.1 7.1 7.0 7.1 7.1 7.0 6.7 6.5 6.8 6.8 6.8 6.6 6.5 5.8 6.1 6.5 6.9 6.6 6.0 7.6 7.6 7.3 6.9 6.3
4.8 4.9 4.8 4.7 4.9 5.4 5.5 5.5 5.6 5.7 5.8 6.1 6.6 6.6 6.7 6.9 7.2 7.4 7.5 7.3 7.3 7.0 7.1 6.9 6.9 6.6 7.0 6.8 6.6 6.5 6.4 6.4 6.3 6.4 6.5 6.2 5.8 5.3 5.2 5.9 5.6 5.7 7.4 7.7 7.4 7.0 6.6
4.6 4.6 4.5 4.4 4.8 5.0 5.1 5.4 5.3 5.4 5.5 5.6 6.1 6.0 6.0 6.2 6.6 7.3 7.1 7.1 7.0 6.8 6.7 7.1 7.0 6.5 6.7 6.6 6.3 6.3 6.3 6.4 6.5 6.9 6.8 6.2 5.6 5.1 4.8 5.1 5.7 7.2 7.3 7.4 7.3 7.3 6.9
4.3 4.4 4.3 4.2 4.4 4.9 5.0 5.1 5.0 5.1 5.4 5.6 5.9 5.7 5.8 5.8 6.6 7.0 6.9 6.8 6.9 6.8 6.9 6.9 6.9 6.7 6.4 6.4 5.7 5.3 5.5 5.5 6.0 6.4 6.9 6.6 5.7 4.7 4.8 5.1 5.3 6.1 7.2 7.0 7.1 6.9 7.1
4.0 3.9 4.2 4.2 4.4 4.5 4.4 4.7 4.8 5.0 5.2 5.7 5.5 5.5 5.4 5.4 6.4 6.5 6.7 6.7 6.7 6.6 6.6 6.7 6.6 6.2 6.1 5.8 5.4 4.8 5.0 5.4 5.1 5.6 6.4 7.0 6.7 5.0 4.7 4.6 5.8 6.7 6.8 6.8 6.4 6.1 7.0
4.0 4.1 4.0 4.1 4.3 4.4 4.5 4.6 4.8 5.2 5.0 5.0 4.9 4.7 4.8 4.7 5.6 6.0 5.9 6.1 6.0 5.9 5.6 6.1 5.8 5.7 6.0 5.8 5.0 4.9 4.9 5.1 4.8 5.4 5.7 6.1 6.3 5.5 5.3 5.1 5.4 6.6 6.7 6.5 6.2 6.8 6.4
4.3 4.3 4.3 4.3 4.2 4.2 4.3 4.6 4.5 4.6 4.8 5.0 5.2 4.9 4.8 4.6 5.1 5.6 5.7 5.8 5.5 5.7 5.1 4.8 4.7 5.0 5.2 5.1 5.3 5.3 5.0 5.3 5.1 5.4 5.6 6.1 6.2 6.1 5.8 5.2 5.3 7.2 6.9 6.7 7.0 6.8 6.5
4.4 4.3 4.4 4.6 4.2 4.3 4.5 4.6 4.7 5.0 5.2 5.2 5.0 5.2 4.8 3.9 3.6 4.3 5.1 6.0 5.7 5.9 5.3 4.6 4.6 5.1 5.2 5.0 5.2 5.3 4.8 4.7 5.1 4.8 5.4 5.4 6.0 6.5 6.4 6.3 6.4 6.6 7.0 7.0 6.4 6.3 6.3
Wind_Speed
7 7 9 10 11 11 12 12 12 12 11 10 10 10 10 11 12 14 16 15 15 15 14 16 17 21 4 5 7 9 15 11 7 6 6 6 5 4 1 3 3 9 3 8 5 6 6
5 7 9 10 10 12 12 12 12 11 11 10 10 11 11 12 12 14 16 16 16 15 14 14 14 16 3 10 7 10 9 6 6 6 4 4 5 6 5 3 4 4 9 9 6 6 5
6 6 8 9 10 11 11 11 11 11 11 12 11 10 11 12 13 14 15 16 17 17 15 12 10 4 3 6 6 9 6 4 3 5 7 2 4 6 6 3 5 4 5 9 9 5 3
5 6 7 7 8 10 10 10 10 11 11 10 11 12 12 11 12 14 15 16 17 18 14 8 6 3 4 2 9 5 7 4 4 5 6 7 4 5 4 4 2 3 4 7 9 5 2
4 5 6 6 7 9 10 10 10 9 10 10 11 11 12 12 12 14 17 18 17 10 6 3 2 3 4 9 8 8 3 8 9 3 3 4 3 2 3 3 3 1 2 3 4 2 4
5 6 6 7 8 8 10 11 11 10 9 10 11 12 11 12 14 17 20 13 5 4 2 1 2 3 2 8 8 7 4 5 4 8 2 3 2 1 5 5 5 3 1 2 1 4 3
4 6 7 8 9 9 9 10 11 10 11 10 10 11 12 13 15 17 9 1 2 2 4 2 3 3 8 10 4 4 4 5 2 2 6 5 6 6 5 4 2 3 2 3 4 4 2
5 6 6 8 8 9 10 10 11 11 10 11 10 12 13 14 14 11 3 4 3 2 4 2 3 5 5 3 4 7 9 5 4 7 8 1 11 9 5 4 3 2 3 4 0 5 3
4 5 6 7 7 8 9 10 11 12 11 10 10 10 13 16 6 4 6 3 3 1 3 2 2 4 4 2 4 6 9 5 4 7 7 4 6 8 5 4 4 5 6 6 4 7 1
2 3 5 5 6 7 9 10 10 11 11 10 10 12 13 14 1 1 2 3 1 2 1 7 2 1 2 2 2 2 3 3 3 6 6 2 5 6 5 3 7 2 4 5 5 6 3
1 2 4 5 6 7 8 9 10 10 10 11 10 10 11 10 2 2 2 3 1 2 3 8 3 3 6 4 6 1 1 1 5 7 4 5 7 6 4 4 6 4 6 3 3 3 4
2 2 3 5 6 7 8 8 10 10 11 11 10 8 7 2 1 1 2 1 2 0 3 3 2 7 6 3 4 6 3 1 0 2 2 3 2 2 4 5 3 6 5 3 1 2 3
3 0 3 3 5 7 8 9 11 12 14 13 8 6 2 0 1 2 1 2 2 2 1 4 3 5 4 4 5 7 6 6 5 6 9 5 1 1 2 5 2 4 4 2 2 2 3
5 3 1 3 4 6 8 10 12 13 15 12 4 2 3 2 2 1 2 1 1 0 3 2 2 5 3 6 1 6 4 5 2 2 3 6 3 2 2 2 3 4 4 3 4 3 5
7 4 2 3 3 5 7 9 12 15 16 9 1 1 0 3 3 1 2 1 3 3 1 2 4 3 1 1 3 5 2 2 1 2 5 5 4 2 1 2 3 2 1 3 5 2 4
10 6 4 2 2 4 7 10 12 15 18 5 1 0 1 5 3 1 0 3 2 1 4 1 2 1 3 3 4 4 2 1 1 1 2 1 6 1 2 2 2 2 1 3 1 4 5
10 9 6 3 2 3 5 8 11 15 17 2 1 2 2 3 2 1 2 4 3 3 3 2 2 3 4 3 2 3 3 1 2 2 1 2 2 1 3 2 3 2 2 2 3 3 6
12 10 8 6 2 4 5 8 10 15 15 2 1 2 2 2 2 0 2 3 0 3 2 3 2 4 3 2 4 3 4 3 2 3 3 2 2 5 5 1 1 3 4 4 3 4 3
15 14 12 7 5 2 4 7 10 13 12 0 1 1 1 1 3 2 1 2 2 4 3 4 4 6 2 3 4 5 3 1 5 3 2 3 2 5 5 3 3 5 4 5 3 2 12
16 14 11 10 7 3 1 5 9 11 8 1 1 2 1 1 1 1 1 2 2 2 2 3 1 2 3 4 7 4 3 2 5 4 3 4 3 9 9 15 4 11 11 8 8 8 15
18 15 14 12 9 5 2 3 7 11 7 1 0 2 1 1 3 2 1 1 2 2 3 5 3 9 6 4 3 6 5 4 4 3 4 4 6 7 14 18 14 18 21 16 17 20 12
16 14 15 15 11 7 4 2 5 9 4 1 2 2 1 1 1 2 3 4 6 3 5 4 6 2 10 7 9 14 5 4 6 4 5 3 5 2 10 12 13 13 20 16 17 19 20
18 17 17 14 12 7 3 2 3 7 4 1 1 1 2 2 2 3 3 4 3 2 4 3 6 2 6 15 16 16 12 11 11 9 7 6 5 3 10 5 12 13 17 8 5 8 8
18 18 15 13 11 6 3 4 4 3 5 0 1 0 2 3 3 4 1 2 3 3 5 3 3 5 2 2 4 5 8 12 14 18 15 9 5 4 8 8 6 3 4 6 12 12 15
17 15 14 12 8 6 5 5 3 3 1 2 1 1 1 3 2 7 7 5 6 4 5 8 9 4 3 3 4 5 4 4 6 5 8 13 10 5 5 9 12 14 4 6 7 8 12
15 13 10 9 7 7 7 6 6 5 5 2 2 1 1 1 3 3 2 2 4 5 3 4 2 1 1 2 3 6 8 8 5 3 3 6 11 8 4 6 7 4 1 2 3 10 2
13 12 11 9 7 4 3 2 4 3 6 4 1 5 2 2 4 5 4 3 2 3 4 4 2 2 2 3 6 8 13 5 7 8 6 5 4 13 13 8 7 11 4 4 4 3 5
10 10 8 14 15 16 15 13 12 10 10 3 1 8 2 3 4 8 6 11 8 6 7 1 4 4 2 5 4 5 5 5 4 8 6 11 7 6 6 6 10 10 5 7 6 2 6
24 23 22 21 21 19 16 13 12 10 10 2 1 2 1 3 3 2 8 14 16 16 9 3 3 1 3 4 3 4 4 2 4 11 2 7 11 11 10 9 4 10 6 11 4 5 3
Wind_Direction
36 23 13 11 14 16 11 9 4 359 352 350 346 341 341 332 325 320 316 318 319 322 327 329 335 338 331 19 356 340 330 333 320 334 15 353 354 333 297 294 270 231 233 235 298 301 326
35 31 19 12 13 15 10 9 2 358 355 350 346 341 335 326 321 317 313 314 314 314 319 324 333 334 316 28 341 325 326 325 340 327 343 352 345 330 301 291 275 324 254 258 282 297 298
28 30 32 14 10 11 11 10 2 356 356 352 341 334 331 322 319 315 312 311 308 308 311 314 328 328 281 3 322 323 318 307 302 301 307 301 309 306 327 278 339 283 258 228 245 254 299
36 17 29 27 6 6 5 9 6 355 352 346 336 329 325 324 323 316 311 306 303 302 304 308 323 293 293 277 315 327 327 322 296 288 267 297 274 280 269 308 248 250 257 194 198 244 181
15 28 13 23 13 7 1 4 1 1 347 342 333 330 329 330 330 319 310 304 301 298 299 316 267 312 3 326 344 335 317 322 322 321 283 275 267 313 273 299 169 188 149 216 185 222 274
3 12 9 10 12 9 5 2 359 353 343 341 337 334 334 333 332 324 314 305 294 296 237 177 214 248 335 326 318 316 320 319 325 326 272 348 315 45 36 16 51 28 57 118 191 43 232
1 7 8 4 9 5 14 360 355 351 341 341 342 338 335 337 336 336 339 336 270 183 34 37 329 272 294 319 278 317 335 324 322 35 3 15 37 30 6 11 359 321 295 13 58 12 264
341 360 13 3 8 5 8 5 358 356 347 340 345 341 337 334 337 345 11 57 55 359 307 202 264 270 269 311 301 346 349 358 6 16 353 29 30 355 304 293 310 5 5 19 58 10 275
339 353 7 3 3 7 8 7 6 2 353 344 341 350 341 331 342 31 62 70 334 242 274 298 273 282 308 274 315 307 355 336 350 358 10 15 5 331 316 359 357 46 23 12 336 323 242
315 348 354 0 1 4 9 8 9 8 356 350 343 342 350 340 152 8 51 352 334 226 303 2 2 11 282 273 245 283 0 332 338 335 346 338 340 345 344 17 338 33 5 317 315 325 308
268 330 351 355 355 4 9 7 5 5 357 348 341 339 351 30 106 71 7 326 190 228 38 354 329 335 331 326 327 134 30 259 329 335 307 21 345 359 19 357 332 355 333 331 318 321 303
182 325 353 358 355 0 4 4 1 355 349 341 332 332 339 32 67 66 311 242 225 216 314 5 302 352 348 6 339 310 349 106 238 300 289 305 314 299 332 309 290 309 279 276 282 282 271
192 163 330 19 359 353 0 360 358 352 346 335 316 322 28 24 47 316 232 196 5 78 62 333 336 350 338 317 329 0 354 21 25 353 3 332 354 303 303 309 189 331 321 299 250 209 271
203 151 323 351 6 353 358 357 356 351 350 349 343 348 19 43 315 285 244 190 50 49 244 50 315 299 317 359 293 332 338 15 85 7 320 341 325 10 19 0 317 353 327 320 309 304 315
180 169 145 303 3 356 352 359 355 350 347 342 36 36 57 1 331 285 261 8 223 206 81 307 291 292 294 148 312 333 332 311 305 336 8 339 298 333 309 333 308 41 326 356 291 235 267
159 177 163 247 336 345 350 353 355 352 349 351 13 353 165 329 324 272 163 246 231 143 136 162 274 307 302 321 322 337 311 141 207 290 298 87 292 159 326 228 108 295 46 269 217 294 294
166 178 174 202 279 319 346 354 355 353 352 347 64 281 92 332 273 189 222 233 243 197 170 196 247 264 256 298 289 299 289 215 197 166 258 180 257 268 267 217 317 188 197 194 289 262 288
187 187 183 179 246 307 346 348 358 358 358 32 88 271 38 303 247 336 210 197 186 187 164 218 235 239 245 254 268 261 259 254 146 178 287 174 283 275 307 79 3 298 279 239 250 256 244
188 190 181 177 217 233 13 352 2 7 9 28 291 286 90 287 246 211 249 268 242 181 204 188 225 221 190 237 273 230 250 213 174 213 227 172 230 297 291 155 152 243 210 231 273 315 257
193 191 185 188 198 203 352 350 359 5 10 321 142 277 122 108 321 217 241 240 252 225 215 194 248 172 183 238 225 276 260 256 197 213 161 181 234 241 267 290 316 274 260 228 235 266 267
199 190 188 189 191 195 241 328 351 354 6 297 54 230 59 224 224 219 243 183 213 251 217 208 206 228 195 255 238 228 238 256 198 207 182 221 253 238 251 268 275 267 275 266 235 244 252
196 195 193 191 199 202 220 312 352 341 20 122 255 218 145 279 247 201 192 227 209 222 202 211 227 192 208 227 234 277 236 221 268 172 193 200 262 260 290 278 274 269 275 260 248 255 257
194 199 203 201 202 205 223 269 319 347 46 285 108 87 287 129 211 188 215 225 213 171 226 262 221 242 228 241 258 263 273 270 256 246 230 205 236 239 267 329 310 277 258 218 205 220 226
199 203 205 202 201 210 231 258 270 341 53 120 75 32 192 253 231 218 286 264 261 229 264 292 202 247 290 326 290 259 249 250 249 243 237 228 215 232 278 288 245 312 300 262 261 253 219
194 196 201 212 212 219 239 243 239 246 77 78 133 215 179 260 278 273 251 256 287 269 240 250 255 281 342 298 275 280 252 245 238 236 238 227 219 241 252 239 296 292 216 188 198 287 246
195 188 187 198 207 224 244 243 233 220 193 133 194 124 133 225 240 286 340 302 293 293 282 243 227 81 142 241 235 266 284 292 248 192 39 193 229 227 200 248 274 340 87 169 160 287 249
197 193 191 193 198 183 152 107 92 109 200 169 215 191 147 199 256 190 235 249 210 279 266 290 279 238 186 219 258 267 262 235 249 241 185 163 190 220 234 265 272 267 194 145 241 288 165
209 203 165 126 117 105 101 95 83 64 43 175 250 200 190 217 228 194 200 252 255 240 256 284 306 218 201 224 245 252 251 235 263 260 222 212 196 198 212 246 273 212 116 211 254 309 297
108 106 103 102 100 98 91 82 72 55 32 14 251 63 340 217 260 340 263 257 255 252 262 216 245 269 261 266 260 297 280 267 303 275 210 255 228 258 209 241 289 199 236 229 267 284 264